Change the Weather History Date:

Wednesday, December 19, 2012

  Actual Average Record
Temperature  
Mean Temperature 35 °F 24 °F  
Max Temperature 37 °F 32 °F 52 °F (1957)
Min Temperature 32 °F 16 °F -7 °F (2010)
Degree Days  
Heating Degree Days 30 41  
Month to date heating degree days 498 723  
Since 1 July heating degree days 1919 2071  
Cooling Degree Days 0 0  
Month to date cooling degree days 0 0  
Year to date cooling degree days 1114 786  
Moisture  
Dew Point 31 °F    
Average Humidity 86    
Maximum Humidity 89    
Minimum Humidity 82    
Precipitation  
Precipitation 0.42 in 0.06 in 0.82 in (1952)
Month to date precipitation 1.37 1.26  
Year to date precipitation 29.07 35.56  
Snow  
Snow 0.70 in - - ()
Month to date snowfall 0.7  
Since 1 July snowfall 0.7  
Snow Depth 0.00 in    
Sea Level Pressure  
Sea Level Pressure 29.90 in    
Wind  
Wind Speed 10 mph (ENE)    
Max Wind Speed 26 mph    
Max Gust Speed 32 mph    
Visibility 3 miles    
Events Fog , Rain , Snow , Thunderstorm    
T = Trace of Precipitation, MM = Missing Value Source: NWS Daily Summary

Daily Weather History Graph

Daily Weather History Graph

Search for Another Location

Airport or City:

Trip Planner

Search our weather history database for the weather conditions in past years. The results will help you decide how hot, cold, wet, or windy it might be!

Date:

Astronomy

Dec. 19, 2012 Rise Set
Actual Time 7:24 AM CST 4:34 PM CST
Civil Twilight 6:53 AM CST 5:06 PM CST
Nautical Twilight 6:18 AM CST 5:41 PM CST
Astronomical Twilight 5:44 AM CST 6:14 PM CST
Moon 11:28 AM CST (12/19) No Moon Set
Length of Visible Light 10h 12m
Length of Day
9h 09m
Waxing Crescent, 45% of the Moon is Illuminated
Dec 19
Waxing Crescent
Dec 19
First Quarter
Dec 28
Full
Jan 4
Last Quarter
Jan 11
New

Hourly Weather History & Observations

Time (CST) Temp. Windchill Dew Point Humidity Pressure Visibility Wind Dir Wind Speed Gust Speed Precip Events Conditions
12:52 AM 33.1 °F 26.9 °F 30.0 °F 89% 29.92 in 4.0 mi NW 6.9 mph - N/A   Overcast
1:52 AM 33.1 °F 27.7 °F 28.9 °F 85% 29.94 in 4.0 mi North 5.8 mph - N/A   Overcast
2:52 AM 32.0 °F 26.4 °F 28.9 °F 88% 29.97 in 4.0 mi North 5.8 mph - N/A   Overcast
3:52 AM 32.0 °F - 28.9 °F 88% 29.99 in 4.0 mi Calm Calm - N/A   Overcast
4:52 AM 32.0 °F 28.7 °F 28.9 °F 88% 29.99 in 4.0 mi North 3.5 mph - N/A   Overcast
5:52 AM 32.0 °F - 28.9 °F 88% 30.01 in 4.0 mi Calm Calm - N/A   Overcast
6:52 AM 32.0 °F - 28.9 °F 88% 30.03 in 4.0 mi Calm Calm - N/A   Overcast
7:52 AM 32.0 °F 27.5 °F 28.9 °F 88% 30.03 in 3.0 mi East 4.6 mph - N/A   Overcast
8:52 AM 33.1 °F 26.9 °F 28.9 °F 85% 30.03 in 3.0 mi ENE 6.9 mph - N/A   Overcast
9:24 AM 33.8 °F 27.7 °F 30.2 °F 87% 30.01 in 2.5 mi ESE 6.9 mph - N/A   Overcast
9:52 AM 33.1 °F 27.7 °F 30.0 °F 89% 30.06 in 2.5 mi ESE 5.8 mph - N/A   Overcast
10:06 AM 33.8 °F 27.0 °F 30.2 °F 87% 30.03 in 3.0 mi ESE 8.1 mph - N/A   Overcast
10:33 AM 33.8 °F 27.0 °F 30.2 °F 87% 30.03 in 2.5 mi ESE 8.1 mph - N/A   Overcast
10:52 AM 35.1 °F 27.9 °F 30.9 °F 85% 30.04 in 2.5 mi ESE 9.2 mph - N/A   Overcast
11:14 AM 35.6 °F 29.2 °F 30.2 °F 81% 30.00 in 3.0 mi SE 8.1 mph - N/A   Overcast
11:52 AM 35.1 °F 28.6 °F 30.9 °F 85% 30.05 in 3.0 mi SSE 8.1 mph - N/A   Overcast
12:15 PM 35.6 °F 31.7 °F 30.2 °F 81% 30.00 in 4.0 mi East 4.6 mph - N/A   Overcast
12:52 PM 36.0 °F 30.3 °F 30.9 °F 82% 30.02 in 4.0 mi East 6.9 mph - N/A   Haze
1:52 PM 36.0 °F 26.7 °F 30.9 °F 82% 29.99 in 3.0 mi ENE 15.0 mph - N/A   Haze
2:13 PM 35.6 °F 27.5 °F 30.2 °F 81% 29.96 in 4.0 mi East 11.5 mph - N/A   Haze
2:23 PM 35.6 °F 28.0 °F 30.2 °F 81% 29.97 in 4.0 mi East 10.4 mph - N/A   Haze
2:52 PM 36.0 °F 28.5 °F 30.9 °F 82% 29.99 in 4.0 mi East 10.4 mph - N/A   Haze
3:52 PM 36.0 °F 27.5 °F 30.9 °F 82% 29.97 in 4.0 mi ENE 12.7 mph - N/A   Haze
4:52 PM 35.1 °F 24.8 °F 30.9 °F 85% 29.96 in 5.0 mi East 17.3 mph - 0.00 in Rain Light Rain
5:09 PM 35.6 °F 26.6 °F 32.0 °F 87% 29.93 in 5.0 mi East 13.8 mph - 0.00 in   Overcast
5:52 PM 35.1 °F 25.9 °F 32.0 °F 89% 29.95 in 4.0 mi East 13.8 mph - 0.00 in Rain Light Rain
6:52 PM 35.1 °F 24.5 °F 32.0 °F 89% 29.90 in 3.0 mi ENE 18.4 mph - 0.04 in Rain Light Rain
7:11 PM 35.6 °F 26.2 °F 33.8 °F 93% 29.88 in 3.0 mi East 15.0 mph 24.2 mph 0.01 in Rain Light Rain
7:21 PM 35.6 °F 26.2 °F 33.8 °F 93% 29.88 in 4.0 mi East 15.0 mph - 0.01 in   Overcast
7:52 PM 35.1 °F 24.8 °F 33.1 °F 92% 29.88 in 3.0 mi East 17.3 mph - 0.01 in   Overcast
8:52 PM 36.0 °F 26.7 °F 34.0 °F 93% 29.86 in 2.5 mi ENE 15.0 mph - 0.00 in Rain Light Rain
9:13 PM 35.6 °F 26.2 °F 33.8 °F 93% 29.83 in 3.0 mi ENE 15.0 mph - 0.01 in Rain Light Rain
9:19 PM 35.6 °F 27.1 °F 33.8 °F 93% 29.82 in 2.5 mi East 12.7 mph - 0.01 in Rain , Thunderstorm Light Rain
9:41 PM 33.8 °F 23.9 °F 32.0 °F 93% 29.80 in 1.0 mi East 15.0 mph - 0.05 in Snow , Thunderstorm Light Snow
9:44 PM 33.8 °F 23.9 °F 32.0 °F 93% 29.80 in 0.8 mi ENE 15.0 mph - 0.06 in Snow Light Snow
9:52 PM 33.1 °F 23.4 °F 32.0 °F 96% 29.81 in 0.8 mi ENE 13.8 mph - 0.07 in Snow Light Snow
10:01 PM 33.8 °F 23.5 °F 32.0 °F 93% 29.78 in 1.0 mi ENE 16.1 mph 23.0 mph 0.03 in Snow Light Snow
10:21 PM 33.8 °F 22.5 °F 30.2 °F 87% 29.74 in 0.5 mi ENE 19.6 mph 24.2 mph 0.06 in Fog , Snow Snow
10:36 PM 33.8 °F 22.2 °F 32.0 °F 93% 29.71 in 1.5 mi East 20.7 mph - 0.08 in Snow Light Snow
10:52 PM 33.1 °F 20.9 °F 32.0 °F 96% 29.71 in 1.5 mi ENE 21.9 mph 29.9 mph 0.10 in Rain Light Freezing Rain
11:00 PM 33.8 °F 21.9 °F 32.0 °F 93% 29.68 in 1.8 mi ENE 21.9 mph 29.9 mph 0.00 in Rain Light Freezing Rain
11:07 PM 33.8 °F 21.9 °F 32.0 °F 93% 29.67 in 2.0 mi ENE 21.9 mph 28.8 mph 0.00 in Rain Light Freezing Rain
11:36 PM 33.8 °F 23.5 °F 33.8 °F 100% 29.67 in 1.5 mi East 16.1 mph 31.1 mph 0.03 in Rain Light Freezing Rain
11:52 PM 34.0 °F 25.5 °F 33.1 °F 96% 29.73 in 1.0 mi NNE 11.5 mph - 0.16 in Rain , Thunderstorm Heavy Rain
11:59 PM 33.8 °F 23.5 °F 33.8 °F 100% 29.69 in 1.2 mi ENE 16.1 mph 20.7 mph 0.04 in Rain , Thunderstorm Light Freezing Rain